High Desert Yearling Classic - 380 Miles Dry Lakes Nevada

Station: Dry Lakes, Nevada - A Race

Distance: 380 Miles    

Release: 02-Jun-2018 07:15

Weather Release:    Arrival:

Wind at Release:     Wind at Arrival:

Temp at Release: °    Temp at Arrival: °

Lofts: 94

Birds: 312

Clocked: 150

Good Luck to Everyone!
Drops Pos Breeder Pigeon Name Color Sex Ent Arrival Speed To Win Eligible
1 Ganus Family Loft - IN 0909-AU17-GFL BB C 1 17:29:10.00 1088.955 00:00:00 Yes
- 1-DROP 17:29:09.00 1087.955
2 Papas Loft - ID 20335-AU17-ARPU BC C 1 17:35:22.00 1078.072 00:06:12 Yes
3 P N W Challenge - ID 7095-AU17-PNWC “1311-1717” BB C 1 17:43:56.00 1063.388 00:14:46 Yes
4 Venn Family Loft - WY 87145-AU17-ARPU BB C 1 17:47:58.00 1056.612 00:18:48 Yes
5 Powerstroke Loft - UT 0183-IF17-PS BC C 1 17:59:27.00 1037.784 00:30:17 Yes
6 Rich Fox Loft - PA 0857-IF17-LVC BB C 1 18:02:28.00 1032.949 00:33:18 Yes
7 Aimhigh Loft - CA 0096-AU17-FMT Aim-394/1444 BC H 1 18:05:39.00 1027.895 00:36:29 Yes
8 Steve Beier - AZ 0718-AU17-IDA BB H 1 20:05:24.00 868.120 02:36:14 Yes
9 Richard Callahan - MO 37941-AU17-AA BC C 1 20:18:23.00 853.733 02:49:13 Yes
10 Warbird Loft - CO 7329-AU17-FH Iron Harry BC C 1 20:18:56.00 853.134 02:49:46 Yes
11 Mc Laughlin Lofts - MA 1199-AU17-MCLO BC H 1 20:19:45.00 852.246 02:50:35 Yes
12 Twin Loft & Joe - MD 41808-AU17-AA BCWF C 1 20:20:19.00 851.631 02:51:09 Yes
13 Huan Qiu Zhang - NC 1710-IF17-JNC BC C 1 20:32:03.00 839.094 03:02:53 Yes
14 Marian Taloi - OR 0233-AU17-OTC The ,, Dicaprio " Cross BB H 1 21:20:44.00 790.793 03:51:34 Yes
15 Doug Donner - CO 13420-AU17-ARPU BC H 1 21:36:53.00 775.975 04:07:43 Yes
16 Rangel/Flores/Fregos - UT 0173-AU17-WFA BCWF H 1 2018-06-03 06:36:22.00 715.779 05:20:12 Yes
17 Stephen Brothers - FL 0767-AU17-COM BB C 1 2018-06-03 06:36:31.00 715.664 05:20:21 Yes
18 Marian Taloi - OR 0476-AU17-OTC BC H 2 2018-06-03 06:54:56.00 701.833 05:38:46 Yes
19 P N W Challenge - ID 7092-AU17-PNWC “555-211” BB H 2 2018-06-03 07:27:08.00 678.893 06:10:58 Yes
20 Lucky Luke - ID 29396-AU17-FOYS BC H 1 2018-06-03 07:27:26.00 678.686 06:11:16 Yes
21 Racing Pigeon Mall - WA 0728-AU17-RPM BB C 1 2018-06-03 07:29:38.00 677.174 06:13:28 Yes
22 Fly & Criddle - ID 6601-AU17-FOYS BC H 1 2018-06-03 08:07:34.00 652.127 06:51:24 Yes
23 Warbird Loft - CO 7331-AU17-FH Oklahoma Nikky BB H 2 2018-06-03 08:12:11.00 649.205 06:56:01 Yes
24 Dream Team - VT 0830-AU17-JCZL BB C 1 2018-06-03 08:15:10.00 647.330 06:59:00 Yes
25 B S Syndicate - IL 0014-AU17-BEKO CHICHARITO BBSP C 1 2018-06-03 08:35:16.00 634.977 07:19:06 Yes
26 Jimmy Zheng Loft - MS 0652-AU17-JZ BB C 1 2018-06-03 08:38:32.00 633.014 07:22:22 Yes
27 Haack Loft - CA 2786-AU17-JEDD MLY C 1 2018-06-03 08:38:41.00 632.924 07:22:31 Yes
28 Hammon And Friends - AZ 0598-AU17-DWI BB C 1 2018-06-03 09:01:05.00 619.785 07:44:55 Yes
29 Richard Callahan - MO 41045-AU17-AA BBWF C 2 2018-06-03 09:01:35.00 619.498 07:45:25 Yes
30 Lucky Luke - ID 29397-AU17-FOYS BC C 2 2018-06-03 09:04:10.00 618.019 07:48:00 Yes
31 Almosta Loft - WA 47995-AU17-AA BB C 1 2018-06-03 09:06:23.00 616.756 07:50:13 Yes
32 King Of The Hill - AZ 0832-AU17-PSC BB H 1 2018-06-03 09:07:44.00 615.989 07:51:34 Yes
33 F & D Lofts - AB 17243-AU17-FD BC C 1 2018-06-03 09:12:34.00 613.259 07:56:24 Yes
34 Hammon And Friends - AZ 0587-AU17-DWI BB C 2 2018-06-03 09:15:19.00 611.717 07:59:09 Yes
35 Jones Boys - UT 1192-AU17-SLI BB H 1 2018-06-03 09:20:34.00 608.793 08:04:24 Yes
36 Michael Kelly - CA 1737-AU17-ARC DC H 1 2018-06-03 09:24:05.00 606.851 08:07:55 Yes
37 A-Lin Loft - ME 14874-US17-IPB BC C 1 2018-06-03 09:32:17.00 602.369 08:16:07 Yes
38 Doug Donner - CO 13435-AU17-ARPU BC C 2 2018-06-03 09:32:19.00 602.351 08:16:09 N/E
39 King Of The Hill - AZ 0814-AU17-PSC BB H 2 2018-06-03 09:43:09.00 596.530 08:26:59 Yes
40 Joe Zarachowicz - MD 2240-IF17-CCC BB H 1 2018-06-03 10:00:35.00 587.397 08:44:25 Yes
41 Spring Break Race - UT 11348-US17-IPB BB C 1 2018-06-03 10:00:36.00 587.388 08:44:26 Yes
42 Rich Fox Loft - PA 0827-IF17-LVC BC C 2 2018-06-03 10:10:57.00 582.097 08:54:47 Yes
43 Baldwin & Tilson - NC 7173-AU17-TENT BB H 1 2018-06-03 10:11:00.00 582.071 08:54:50 Yes
44 Rangel/Flores/Fregos - UT 0170-AU17-WFA DCWF H 2 2018-06-03 10:33:41.00 570.803 09:17:31 Yes
45 Arendonk West - CA 26810-AU17-AA BB H 1 2018-06-03 10:40:42.00 567.405 09:24:32 Yes
46 Michael Kelly - CA 1736-AU17-ARC BC C 2 2018-06-03 10:49:44.00 563.089 09:33:34 Yes
47 Baldwin & Tilson - NC 7172-AU17-TENT PNSP H 2 2018-06-03 10:51:06.00 562.442 09:34:56 Yes
48 D & L Lofts - BC 1106-CU17-MTNP BB C 1 2018-06-03 11:06:44.00 555.144 09:50:34 Yes
49 Almosta Loft - WA 1661-AU17-CHI BB C 2 2018-06-03 11:10:19.00 553.497 09:54:09 Yes
50 Hammon And Friends - AZ 0594-AU17-DWI BB C 3 2018-06-03 11:11:33.00 552.933 09:55:23 Yes
51 Jones Boys - UT 1188-AU17-SLI BC C 2 2018-06-03 11:28:52.00 545.129 10:12:42 Yes
52 Eagle Ridge Lofts - WY 17025-AU17-EAGL BB H 1 2018-06-03 11:30:52.00 544.241 10:14:42 Yes
53 Carlton Kroese-Crazy Al - CO 5179-AU17-CRAZ BB C 1 2018-06-03 11:31:31.00 543.954 10:15:21 Yes
54 Yong Bi - TX 59037-AU17-ARPU BB C 1 2018-06-03 11:31:34.00 543.931 10:15:24 Yes
55 Stephen Brothers - FL 0764-AU17-COM DNCK C 2 2018-06-03 11:37:56.00 541.130 10:21:46 Yes
56 Dave Naylor - BC 1110-CU17-MTNP BBPN C 1 2018-06-03 11:42:16.00 539.239 10:26:06 Yes
57 Marian Taloi - OR 11074-AU17-JEDD The Good ,,kannibaal" BC C 3 2018-06-03 11:42:29.00 539.145 10:26:19 Yes
58 Jose Rangel - UT 43347-AU17-AA BB H 1 2018-06-03 11:46:46.00 537.289 10:30:36 Yes
59 Aimhigh Loft - CA 0076-AU17-FMT Aim-633/7 BC C 2 2018-06-03 11:46:54.00 537.232 10:30:44 Yes
60 Scott / Morrison - UT 1113-AU17-WING BB H 1 2018-06-03 12:02:05.00 530.759 10:45:55 Yes
61 Dick & Marty Lee - ID 1050-AU17-IDA DC C 1 2018-06-03 12:02:07.00 530.745 10:45:57 Yes
62 Mario Rodriguez - AZ 15904-AU17-ARPU BCWF C 1 2018-06-03 12:02:17.00 530.674 10:46:07 Yes
63 Slick Hills Loft - UT 46136-AU17-ARPU BCWF C 1 2018-06-03 12:02:25.00 530.618 10:46:15 Yes
64 Hammon And Friends - AZ 0409-AU17-DWI BC C 4 2018-06-03 12:02:26.00 530.611 10:46:16 Yes
64 Skyraider - WA 7289-AU17-TCW BC C 1 2018-06-03 12:02:26.00 530.611 10:46:16 Yes
66 El Dorado Lofts Canada - BC 1192-CU17-MTNP BBWF C 1 2018-06-03 12:06:04.00 529.086 10:49:54 Yes
67 Frank Locante - WI 17020-AU17-FRLO BBSP H 1 2018-06-03 12:11:32.00 526.808 10:55:22 Yes
68 Stella Loft - TX 10999-AU17-AA BB H 1 2018-06-03 12:11:42.00 526.739 10:55:32 Yes
69 Dave Naylor - BC 1102-CU17-MTNP BC C 2 2018-06-03 12:25:05.00 521.244 11:08:55 Yes
70 Sunshine Loft - BC 18785-CU17-CRPU BB C 1 2018-06-03 12:34:52.00 517.300 11:18:42 Yes
71 Baldwin & Tilson - NC 7177-AU17-TENT BBWT H 3 2018-06-03 12:35:20.00 517.113 11:19:10 Yes
72 Spring Break Race - UT 16720-AU17-AA BB H 2 2018-06-03 12:44:34.00 513.448 11:28:24 N/E
73 Pigeon Village - ID 1222-AU17-IDA BC H 1 2018-06-03 12:45:11.00 513.205 11:29:01 Yes
74 Sam Haslem - UT 7809-AU17-CDR BB H 1 2018-06-03 13:29:04.00 496.486 12:12:54 Yes
75 Chick Clayton - ID 0726-AU17-IDA BB C 1 2018-06-03 13:29:08.00 496.462 12:12:58 Yes
76 A-Lin Loft - ME 0914-AU17-NEC BB C 2 2018-06-03 14:02:05.00 484.608 12:45:55 Yes
77 Bieche-Stevenson - CA 7577-AU17-BIEC DC C 1 2018-06-03 14:05:22.00 483.458 12:49:12 Yes
78 Pigeon Village - ID 0886-AU17-IDA BC H 2 2018-06-03 14:18:09.00 479.032 13:01:59 Yes
79 Rangel/Flores/Fregos - UT 0175-AU17-WFA BC C 3 2018-06-03 14:24:17.00 476.936 13:08:07 Yes
80 Mc Laughlin Lofts - MA 1230-AU17-MCLO BC H 2 2018-06-03 14:51:33.00 467.840 13:35:23 Yes
81 Silver Dollar Loft - CO 0098-AU17-SD BB C 1 2018-06-03 14:52:05.00 467.665 13:35:55 Yes
82 K/N Loft - HI 40462-AU17-AA BB C 1 2018-06-03 15:33:31.00 454.497 14:17:21 Yes
83 El Dorado Lofts Canada - BC 1196-CU17-MTNP RC C 2 2018-06-03 15:46:24.00 450.552 14:30:14 Yes
84 Sam Haslem - UT 7802-AU17-CDR BC H 2 2018-06-03 16:04:37.00 445.090 14:48:27 Yes
85 Ganus Family Loft - IN 0921-AU17-GFL RC C 2 2018-06-03 16:08:55.00 443.820 14:52:45 Yes
86 Papas Loft - ID 20337-AU17-ARPU BC C 2 2018-06-03 16:34:54.00 436.297 15:18:44 Yes
87 Bert Bruno - UT 11464-IF17-FOYS BC H 1 2018-06-03 16:36:18.00 435.899 15:20:08 Yes
88 Zuber Loft - CT 0192-AU17-NRA BC C 1 2018-06-03 16:36:44.00 435.776 15:20:34 Yes
89 Ed Kehl - UT 0987-AU17-WFA BB C 1 2018-06-03 16:37:29.00 435.563 15:21:19 Yes
90 Venn Family Loft - WY 87147-AU17-ARPU BB H 2 2018-06-03 16:44:20.00 433.629 15:28:10 Yes
90 Baldwin & Tilson - NC 7170-AU17-TENT BB C 4 2018-06-03 16:44:20.00 433.629 15:28:10 Yes
92 F & D Lofts - AB 17253-AU17-FD BC H 2 2018-06-03 16:59:15.00 429.475 15:43:05 Yes
93 Carlton Kroese-Crazy Al - CO 1283-AU17-HOHC BB H 2 2018-06-03 17:47:07.00 416.668 16:30:57 Yes
94 Ordonez Loft - CA 0424-AU17-FMT BBPD H 1 2018-06-03 17:58:44.00 413.674 16:42:34 Yes
95 Bert Bruno - UT 11475-IF17-FOYS BBWF H 2 2018-06-03 18:32:24.00 405.235 17:16:14 Yes
96 Scott/Carol Team - UT 0361-AU17-DWI BB C 1 2018-06-03 19:00:29.00 398.455 17:44:19 Yes
97 Eagle Ridge Lofts - WY 17044-AU17-EAGL INWF C 2 2018-06-03 19:00:47.00 398.384 17:44:37 Yes
98 Adirondack Team - NY 66402-AU17-ARPU GRZ H 1 2018-06-03 19:09:41.00 396.283 17:53:31 Yes
99 Bert Bruno - UT 36364-AU17-JEDD BC H 3 2018-06-03 19:17:14.00 394.518 18:01:04 Yes

There are 496 bird records

Note: These Race Results are unofficial and subject to change until verified by the Race Committee and declared final.

Click for forecast!